Regional Weather Roundup
Issued by NWS Bismarck, ND

Home | Current Version | Previous Version | Text Only | Print | Product List | Glossary On
Versions: 1 2 3 4 5 6 7 8 9 10 11 12 13 14 15 16 17 18 19 20 21 22 23 24 25 26 27 28 29 30 31 32 33 34 35 36 37 38 39 40 41 42 43 44 45 46 47 48 49 50
000
ASUS43 KBIS 240720
RWRBIS

NWR BROADCAST TEXT
NATIONAL WEATHER SERVICE BISMARCK ND
200 AM CDT FRI OCT 24 2014

NOTE: "FAIR" INDICATES FEW OR NO CLOUDS BELOW 12,000 FEET WITH NO
SIGNIFICANT WEATHER AND/OR OBSTRUCTIONS TO VISIBILITY.


CITY           SKY/WX    TMP DP  RH WIND       PRES   REMARKS
WILLISTON      CLOUDY    42  34  73 CALM      29.79R
MINOT          CLOUDY    52  33  48 SW10      29.74F
MINOT AFB      CLOUDY    51  35  55 W12       29.73F
BISMARCK       CLOUDY    50  32  50 SW6       29.82S
DICKINSON      MOCLDY    46  32  58 W7        29.81F
GARRISON         N/A     46  39  76 SW6       29.78F
HETTINGER ARPT MOCLDY    43  28  55 VRB5      29.87F
JAMESTOWN      CLOUDY    50  37  61 SW7       29.79F
BEACH            N/A     43  34  70 S3        29.84S
CARRINGTON     FAIR      48  36  61 W13       29.80R
CROSBY         FAIR      45  39  81 S12       29.75S
HARVEY         FAIR      45  36  70 SW8       29.78S
HAZEN          FAIR      39  32  75 SW6       29.81S
LINTON         FAIR      43  39  87 S7        29.84S
MANDAN         FAIR      50  32  50 SW8       29.82S
OAKES            N/A     45  45 100 S9        29.82F
RUGBY          FAIR      45  37  76 SW6       29.75F
STANLEY        FAIR      46  36  66 W5        29.77S
TIOGA          FAIR      48  36  61 SW13      29.80S
$$

CITY           SKY/WX    TMP DP  RH WIND       PRES   REMARKS
GRAND FORKS    PTCLDY    46  37  71 S8        29.75S
GRAND FORKS AF PTCLDY    54  37  53 SW9       29.75S
DEVILS LAKE    MOCLDY    52  36  54 SW7       29.75S
FARGO          MOCLDY    51  42  71 S9        29.81R
CANDO          FAIR      41  36  81 SW6       29.75S
CAVALIER       FAIR      50  39  66 SW3       29.71S
GRAFTON        FAIR      43  37  81 SW9       29.72S
GWINNER        SUNNY     50  45  81 SW9       29.84S
LANGDON        FAIR      45  36  70 SW8       29.73S
ROLLA          FAIR      48  36  61 SW8       29.74S
WALHALLA         N/A     54  36  50 W8        29.71S
$$

CITY           SKY/WX    TMP DP  RH WIND       PRES   REMARKS
ABERDEEN       CLOUDY    39  38  96 CALM      29.84S
MOBRIDGE       CLOUDY    45  40  82 CALM      29.83S
BUFFALO          N/A     48  28  46 W7        29.81F
RAPID CITY     CLOUDY    47  33  58 W6        29.92S
GLASGOW        CLOUDY    50  39  66 CALM      29.78R
SIDNEY         CLOUDY    43  36  75 CALM      29.81F
WOLF POINT     MOCLDY    41  36  82 SW3       29.78S
GLENDIVE       MOCLDY    45  34  65 S9        29.83S
MILES CITY     MOCLDY    46  33  60 SE5       29.85R
BAKER          PTCLDY    43  32  65 NW5       29.87S
$$

CITY           SKY/WX    TMP DP  RH WIND       PRES   REMARKS
BILLINGS       CLOUDY    61  29  29 W10       29.89S
GREAT FALLS    PTCLDY    49  37  63 SW18G26   29.86F
REGINA         PTCLDY    41  37  87 SW9       29.67S
ESTEVAN        MOCLDY    45  37  76 SW9       29.73S
$$




USA.gov is the U.S. government's official web portal to all federal, state and local government web resources and services.